NADEZHDA 7

导读

NADEZHDA 7(“希望7号”)是由独立国家联合体(CIS)发射的人造卫星,于2002年9月26日协调世界时08时从航天发射场升空,延续了“希望”系列卫星的空间任务布局。作为该系列的第七颗卫星,它承载着空间技术试验与对地观测相关任务,依托独联体整合的航天发射能力完成入轨,是新世纪初独联体航天活动的重要组成部分,在轨道运行期间持续服务于相关空间科学与应用目标。

基本信息
目录编号:
27534
目录名称:
NADEZHDA 7
国际标识:
2002-046A
轨道中心:
EARTH
卫星名称:
NADEZHDA 7
卫星全名:
--
卫星状态:
在轨 (已飞行8663 天)
发射日期:
2002-09-26 UTC
国别 :
俄罗斯(独联体) (CIS)
星等 :
--
轨道信息
数据来源 国际轨道数据 AOE轨道数据
星历时间 2026-06-15T05:03:22+0800
6小时前
查看轨道信息
2026-06-11T11:00:00+0800
4天前
查看轨道信息
半长轴 7367.092km 7367.089km
偏心率 0.0035644 0.0035858
轨道倾角 82.935° 82.936°
近地点辐角 341.319° 351.664°
升交点赤经 332.471° 335.244°
平近点角 127.715° 301.241°
近地点 962.695km 962.535km
远地点 1015.215km 1015.369km
周期 104.883分钟 104.883分钟
每日圈数 13.729626 13.729632
详细信息
使用方式:
暂无
2D轨道图
3D轨道图
轨道高度分析图
轨道倾角分析图
轨道综合分析图
查看轨道综合分析图